Regional Weather Roundup
Issued by NWS Grand Forks, ND

Home | Current Version | Previous Version | Graphics & Text | Print | Product List | Glossary On
Versions: 1 2 3 4 5 6 7 8 9 10 11 12 13 14 15 16 17 18 19 20 21 22 23 24 25 26 27 28 29 30 31 32 33 34 35 36 37 38 39 40 41 42 43 44 45 46 47 48 49 50
000
ASUS43 KFGF 290110
RWRFGF
PRAIRIE TO PINES  WEATHER ROUNDUP
NATIONAL WEATHER SERVICE EASTERN NORTH DAKOTA/GRAND FORKS ND
800 PM CDT THU APR 28 2016

 **SATELLITE DATA USED TO AUGMENT SKY COVER AT AUTOMATED STATIONS**
 *****  WEATHER ACROSS EASTERN NORTH DAKOTA  *****

CITY           SKY/WX    TMP DP  RH WIND       PRES   REMARKS
GRAND FORKS    PTCLDY    54  27  35 NE8       30.13R
GRAND FRKS AFB PTCLDY    54  23  30 E9        30.13S
DEVILS LAKE    PTCLDY    51  24  34 E8        30.15R
FARGO          MOCLDY    57  24  28 NE12      30.08R
WAHPETON ARPT  CLOUDY    46  34  61 SW6       30.09R
$$

 ***** WEATHER ACROSS CENTRAL AND WESTERN NORTH DAKOTA  *****

CITY           SKY/WX    TMP DP  RH WIND       PRES   REMARKS
BISMARCK       CLOUDY    52  28  39 NE9       30.12R
MINOT          PTCLDY    57  15  19 E6        30.14S
JAMESTOWN      CLOUDY    51  25  36 E10       30.10R
MINOT AFB      CLOUDY    52  20  28 SE8       30.13S
GARRISON         N/A     53  17  24 E13       30.12S
WILLISTON      CLOUDY    54  16  22 E13       30.14R
DICKINSON      CLOUDY    49  26  41 NE9       30.09R
HETTINGER      CLOUDY    46  33  60 N5        30.11S
$$

 *****  OTHER AIRPORT OBSERVATIONS IN OUR AREA  *****

CITY           SKY/WX    TMP DP  RH WIND       PRES   REMARKS
WALHALLA       FAIR      54  23  30 NE10      30.17R
GRAFTON AIRPOR FAIR      54  30  40 E9        30.15S
VALLEY CITY AR CLOUDY    50  27  40 NE8       30.12R
CANDO          FAIR      54  18  24 NE10      30.17R
CAVALIER APRT  FAIR      55  27  33 N7        30.15R
GWINNER        CLOUDY    52  37  58 E6        30.09R
ROLLA          FAIR      48  18  29 NE14G20   30.18R
 ***** THE ABOVE OBSERVATIONS ARE NON NWS ARE NOT QUALITY
       CONTROLLED AND MAY MIS-REPORT RAIN FOR SNOW...
$$

  *****  WEATHER ACROSS NORTHERN MINNESOTA  *****

CITY           SKY/WX    TMP DP  RH WIND       PRES   REMARKS
FLAG ISLAND    PTCLDY    50  27  40 NE7       30.15S
WARROAD        PTCLDY    45  27  49 NE6       30.16S
ROSEAU         PTCLDY    48  32  53 E6        30.15S
HALLOCK        PTCLDY    55  21  26 SE8       30.14R
THF RVR FALLS  CLEAR     54  23  30 N13       30.13S
BAUDETTE       CLEAR     51  22  31 N10       30.13R
WASKISH        CLEAR     52  30  43 NE6       30.12S
CROOKSTON      CLEAR     54  27  35 NE10      30.13R
STEPHEN NDAWN    N/A     52  28  40 E6          N/A
GREENBUSH NDAW   N/A     48  28  46 E5          N/A
$$
  *****  WEATHER ACROSS CENTRAL AND WEST MINNESOTA  *****

CITY           SKY/WX    TMP DP  RH WIND       PRES   REMARKS
FOSSTON        PTCLDY    52  27  37 NE9G17    30.11S
BEMIDJI        CLEAR     51  27  38 NE6       30.10R
PARK RAPIDS    CLOUDY    54  25  32 NE6       30.07R
ELBOW LAKE     CLOUDY    45  39  79 SW6       30.09R
WADENA         CLOUDY    50  34  53 CALM      30.07R
DETROIT LAKES  CLOUDY    52  27  37 E6        30.08S
MOORHEAD       CLOUDY    55  25  30 E5        30.09R
FERGUS FALLS   CLOUDY    46  37  71 SW7       30.06S
MORRIS MN      CLOUDY    45  39  81 SE6       30.09R
STAPLES        CLOUDY    46  36  66 S9        30.08R
$$
  *****  WEATHER ELSEWHERE ACROSS MINNESOTA  *****

CITY           SKY/WX    TMP DP  RH WIND       PRES   REMARKS
DULUTH         PTCLDY    39  24  55 E12       30.11S
INTRNTL FALLS  CLEAR     51  27  39 N6        30.12S
ELY            PTCLDY    50  27  40 NE3       30.11R
CLOQUET        CLOUDY    41  23  48 E12       30.11R
WHEATON        CLOUDY    46  39  76 SW5       30.11
BRAINERD       CLOUDY    48  22  35 SE6       30.09R
HIBBING        PTCLDY    50  26  39 NE8       30.09R
ALEXANDRIA     CLOUDY    43  36  76 S8        30.09R
SAINT CLOUD    LGT RAIN  41  39  93 S5        30.09R
MINNEAPOLIS    LGT RAIN  41  37  86 NE8       30.09R FOG
$$

  *****  WEATHER ACROSS SOUTH DAKOTA  *****

CITY           SKY/WX    TMP DP  RH WIND       PRES   REMARKS
SIOUX FALLS    CLOUDY    40  35  83 NE9       30.08R
BROOKINGS      CLOUDY    36  34  92 NE9       30.08R
WATERTOWN      CLOUDY    39  36  89 NE8       30.08R FOG
HURON          CLOUDY    40  35  83 MISG      30.10R
SISSETON         N/A     43  37  79 SW6       30.09S
ABERDEEN       CLOUDY    48  37  65 SE7       30.10R
MITCHELL       CLOUDY    42  37  82 NE10      30.09R
PIERRE         CLOUDY    46  34  62 NE8       30.08R
MOBRIDGE       CLOUDY    50  37  61 E6        30.06R
RAPID CITY     CLOUDY    38  34  85 NE8       30.10R
$$

  *****  SOME WEATHER IN NEARBY STATES *****

CITY           SKY/WX    TMP DP  RH WIND       PRES   REMARKS
GLASGOW MT     MOSUNNY   52  29  41 SE12      30.11S
GREAT FALLS MT CLOUDY    41  32  70 E10       30.06F
CHEYENNE WY    FLURRIES  34  32  92 S9        30.00R
SCOTTSBLUFF NE CLOUDY    38  34  85 E3        30.06S
OMAHA NE       CLOUDY    47  42  83 N15       30.02S
DES MOINES IA  CLOUDY    51  46  83 NW10      29.99S
DAVENPORT IA   CLOUDY    51  49  92 E6        29.96R FOG
CHICAGO IL     CLOUDY    43  40  89 N9        29.97R
EAU CLAIRE WI  LGT RAIN  39  36  89 SE17G24   30.06F
LA CROSSE WI   CLOUDY    42  38  85 NE12      30.04S
$$

  *****  SOME NATIONAL WEATHER *****

CITY           SKY/WX    TMP DP  RH WIND       PRES   REMARKS
LA GUARDIA NY  CLOUDY    51  31  46 S7        30.04S
RALEIGH NC     TSTM      68  66  93 SE3       29.89R
ATLANTA GA     PTCLDY    77  56  48 SW6       29.95R
NEW ORLEANS LA MOCLDY    77  71  82 S10       29.93R
OKLAHOMA CITY  CLOUDY    70  51  51 E14       29.86R
ALBUQUERQUE NM MOCLDY    71   9   9 S26G32    29.68S
SALT LAKE CITY CLOUDY    53  33  46 E12       29.77R
LOS ANGELES CA MOSUNNY   62  49  62 SW12      29.87R
BOISE ID       SUNNY     65  30  27 NW25G33   29.80R
SEATTLE WA     CLOUDY    60  45  57 W8        30.08F
$$

*** WEATHER ACROSS MANITOBA...SASKATCHEWAN AND ONTARIO ***
                ***ONTARIO***

CITY           SKY/WX    TMP DP  RH WIND       PRES   REMARKS
GERALDTON      MOCLDY    39  27  60 NE9       30.18S
THUNDER BAY    MOCLDY    41  27  56 NE3       30.16R
SIOUX LOOKOUT  MOCLDY    46  28  49 E3        30.17R
TORONTO        MOCLDY    45  23  42 NE8       30.06F
BIG TROUT LK   CLOUDY    34  28  80 N5        30.29S
PICKLE LAKE    CLOUDY    41  27  56 NE7       30.20S
DRYDEN         CLOUDY    48  28  46 E5        30.17R
KENORA         MOCLDY    50  28  43 NE7       30.17R
$$
                *** MANITOBA***

CITY           SKY/WX    TMP DP  RH WIND       PRES   REMARKS
BRANDON        MOCLDY    52  16  24 E16       30.21S
DAUPHIN        CLEAR     52  18  25 E10       30.24S
ISLAND LAKE    NOT AVBL
PILOT MOUND      N/A     50  14  23 NE12        N/A
THE PAS        PTCLDY    54  21  28 S10       30.28F
THOMPSON       MOCLDY    52  18  25 E3        30.31F
WINNIPEG       MOCLDY    52  14  22 NE15      30.20S
LYNN LAKE      MOCLDY    57  25  28 S6        30.19F
GILLAM         PTCLDY    39  16  38 E5        30.38F
$$
                ***SASKATCHEWAN***

CITY           SKY/WX    TMP DP  RH WIND       PRES   REMARKS
ESTEVAN        CLOUDY    54  14  20 E12G18    30.16S
KINDERSLEY     CLOUDY    57  23  26 SE16      30.12F
LLOYDMINSTER   CLOUDY    59  21  23 S16       30.11F
PRINCE ALBERT  MOSUNNY   59  23  25 SE7       30.19F
REGINA         NOT AVBL
YORKTON        CLEAR     55  21  26 SE12G17   30.20S
N. BATTLEFORD  SUNNY     59  21  23 SE15      30.16F
LA RONGE       MOSUNNY   63  25  23 E9        30.17F
SASKATOON      PTSUNNY   59  19  21 SE13G20   30.19S
SWIFT CURRENT  SUNNY     54  21  28 SE12      30.12S
$$
NOTE: THESE ARE AUTOMATED STATIONS WITH LIMITED QUALITY CONTROL
      "FAIR" INDICATES FEW OR NO CLOUDS BELOW 12,000 FEET WITH NO
      SIGNIFICANT WEATHER AND/OR OBSTRUCTIONS TO VISIBILITY.
      SKY/WX - SKY CONDITION AND SIGNIFICANT WEATHER.
      TMP - AIR TEMPERATURE.    DP   - DEWPOINT TEMPERATURE.
      RH  - RELATIVE HUMIDITY.  PRES - PRESSURE.
      HX  - HEAT INDEX.         WCI  - WIND CHILL INDEX.
$




USA.gov is the U.S. government's official web portal to all federal, state and local government web resources and services.